[Iaude] MPEC V203: 2023 VA7 [a=0.80,e=0.29,i=3.8,H=27.1]
    mpec at marsden.cfa.harvard.edu 
    mpec at marsden.cfa.harvard.edu
       
    Sat Nov 11 14:39:49 EST 2023
    
    
  
M.P.E.C. 2023-V203                            Issued 2023 November 11, 19:38 UT
     The Minor Planet Electronic Circulars contain information on unusual
         minor planets, routine data on comets and natural satellites,
         and occasional editorial announcements.  They are published
    on behalf of Division F of the International Astronomical Union by the
          Minor Planet Center, Smithsonian Astrophysical Observatory,
                          Cambridge, MA 02138, U.S.A.
			  
             Prepared using the Tamkin Foundation Computer Network
                              MPC at CFA.HARVARD.EDU
            URL https://www.minorplanetcenter.net/    ISSN 1523-6714
                                    2023 VA7                                    
Observations:
     K23V07A*1C2023 11 11.17064001 19 44.173+40 41 31.81         18.89GVEV203703
     K23V07A 1C2023 11 11.18158301 19 17.393+40 37 10.38         18.73GVEV203703
     K23V07A 1C2023 11 11.18708801 19 03.911+40 34 56.93         18.76GVEV203703
     K23V07A mC2023 11 11.22234101 17 39.224+40 20 48.05         18.91GVEV203I52
     K23V07A mC2023 11 11.22435301 17 34.451+40 19 59.20         19.03GVEV203I52
     K23V07A mC2023 11 11.22643101 17 29.494+40 19 09.12         18.89GVEV203I52
     K23V07A mC2023 11 11.22660101 17 29.094+40 19 04.87         18.88GVEV203I52
     K23V07A mC2023 11 11.34612101 13 00.631+39 30 21.24         18.58GVEV203I52
     K23V07A mC2023 11 11.34629101 13 00.264+39 30 17.24         18.85GVEV203I52
     K23V07A mC2023 11 11.34646301 12 59.915+39 30 13.03         18.81GVEV203I52
     K23V07A mC2023 11 11.34663401 12 59.558+39 30 08.82         18.95GVEV203I52
     K23V07A KB2023 11 11.77512801 02 00.931+36 56 59.78         18.8 GXEV203K74
     K23V07A KB2023 11 11.78137601 01 50.873+36 55 04.30         19.3 GXEV203K74
     K23V07A KB2023 11 11.78762601 01 40.788+36 53 08.52         19.4 GXEV203K74
Observer details:
703 Catalina Sky Survey.  Observer R. A. Kowalski.  Measurers E. C. Beshore,
    D. Fay, J. B. Fazekas, D. C. Fuls, A. R. Gibbs, A. D. Grauer, H. Groeller,
    J. K. Hogan, R. A. Kowalski, S. M. Larson, G. J. Leonard, D. Rankin, R. L.
    Seaman, F. C. Shelly, K. W. Wierzchos.  0.68-m Schmidt + 10K CCD.
I52 Steward Observatory, Mt. Lemmon Station.  Observer J. K. Hogan.  Measurers
    E. C. Beshore, D. Fay, J. B. Fazekas, D. C. Fuls, A. R. Gibbs, A. D.
    Grauer, H. Groeller, J. K. Hogan, R. A. Kowalski, S. M. Larson, G. J.
    Leonard, D. Rankin, R. L. Seaman, F. C. Shelly, K. W. Wierzchos.  1.0-m
    prime focus + CCD.
K74 Muensterschwarzach Observatory, Schwarzach.  Observer C. Gerhard.  0.30-m
    f/3.75 reflector + CMO.
Orbital elements:
2023 VA7                                                 Earth MOID = 0.0026 AU
Epoch 2023 Sept. 13.0 TT = JDT 2460200.5                Bell                    
M  57.76744              (2000.0)            P               Q                  
n   1.37472780     Peri.  209.46607     -0.31124484     +0.94925766             
a   0.8010474      Node    42.44445     -0.85830383     -0.26040218             
e   0.2946790      Incl.    3.83417     -0.40797204     -0.17635363             
P   0.72           H   27.12          G   0.15           U   7                  
Residuals in seconds of arc
231111 703  0.5+  0.2+    231111 I52  0.1-  0.1+    231111 I52  0.0   0.2+
231111 703  0.1-  0.7+    231111 I52  0.1-  0.0     231111 K74  0.1-  0.2-
231111 703  1.0-  0.7-    231111 I52  0.0   0.0     231111 K74  0.1+  0.0
231111 I52  0.0   0.1+    231111 I52  0.1-  0.2+    231111 K74  0.0   0.1+
231111 I52  0.1+  0.1-    231111 I52  0.0   0.2+
Ephemeris:
2023 VA7                 a,e,i = 0.80, 0.29, 4                   q = 0.5650
Date    TT    R. A. (2000) Decl.     Delta      r    Elong.  Phase     V
2023 10 12    11 48 37.9 -11 37 15   0.1118  0.8939    19.8   157.8    32.4
...
2023 10 27    11 28 14.0 -07 27 04   0.04925 0.9559    38.4   139.7    27.3
...
2023 11 04    10 54 14.8 +05 08 14   0.01875 0.9822    58.1   121.0    23.4
...
2023 11 10    02 28 13.7 +50 30 20   0.0097270.9986   145.9    33.8    18.5
2023 11 11    01 25 58.0 +41 52 55   0.01265 1.0010   147.9    31.7    19.0
2023 11 12    00 56 39.0 +35 50 34   0.01602 1.0034   146.0    33.5    19.6
...
2023 11 18    00 11 21.1 +22 49 25   0.03870 1.0157   133.5    44.9    21.8
...
2023 11 26    00 03 16.3 +18 53 50   0.07020 1.0276   123.6    53.1    23.4
...
2023 12 11    00 08 13.7 +17 14 49   0.1289  1.0357   109.8    63.4    25.0
M. P. C. Staff               (C) Copyright 2023 MPC           M.P.E.C. 2023-V203
    
    
More information about the Iaude
mailing list